Location: Capvern
(43.1036°N, 0.3160°E)
Time: 12:19:04
(UTC+00:00)

Cosmos 489 Rocket - Pass Details

Date: 29 May 2022
Orbit: 952 x 983 km, 74.0° (Epoch: 01 July)

Event Time Altitude Azimuth Distance (km) Brightness Sun altitude
Rises 01:07:02 0° 353° (N) 3,644 8.6 -23.3°
Reaches altitude 10° 01:11:58 10° 27° (NNE) 2,699 7.9 -23.0°
Maximum altitude 01:13:44 11° 44° (NE) 2,614 7.6 -22.9°
Drops below altitude 10° 01:15:30 10° 61° (ENE) 2,701 7.5 -22.8°
Sets 01:20:25 0° 95° (E) 3,651 7.7 -22.5°
